Starlink 32466

operational
NORAD ID: 61859 Int'l Des: 2024-202 Owner: SPXS Country: US Constellation: starlink
LEOCIRCULAR

About Starlink 32466

Description loading...

Live Position

Loading 3D Globe...

Upcoming Passes

Altitude History

Altitude vs Time

uPlot chart will show altitude changes over time

Two-Line Element Set

1 61859U 24202Q 25303.93784498 -.00000209 00000-0 19417-5 0 9993
2 61859 43.0008 250.7713 0001686 281.9533 78.1130 15.27575680 55492
Epoch: Oct 30, 2025 • Age: 21 hours

Current Status

Altitude 487.2 km
Velocity 7.63 km/s
Sub-Earth Point 42.51°N, 17.59°E
Launch Date Nov 7, 2024
Age 0.9 years
Type internet

Technical Details

Classification Payload
Mass 730.00 kg
Dry Mass 700.00 kg
Total Mass 730.00 kg
Length 0.30 m
Diameter 4.10 m
Span 29.00 m
Shape Box + pan
Manufacturer SPXS
Bus Type Starlink V2M
Phase Status In Orbit
Owner/State SPXS/US

Large Constellations

Loading constellations...